Regional Weather Roundup
Issued by NWS

Home | Current Version | Previous Version | Text Only | Print | Product List | Glossary On
Versions: 1 2 3 4 5 6 7 8 9 10 11 12 13 14 15 16 17 18 19 20 21 22 23 24 25 26 27 28 29 30 31 32 33 34 35 36 37 38 39 40 41 42 43 44 45 46 47 48 49 50
000
ASUS43 KDTX 272301
RWRMI
MICHIGAN HOURLY REGIONAL WEATHER ROUNDUP
NATIONAL WEATHER SERVICE DETROIT/PONTIAC MI
700 PM EDT FRI MAR 27 2015

NOTE: "FAIR" INDICATES FEW OR NO CLOUDS BELOW 12,000 FEET WITH NO
SIGNIFICANT WEATHER AND/OR OBSTRUCTION TO VISIBILITY.

MIZ047>049-052>055-059>063-066>070-074>076-081>083-280000-
SOUTHEAST LOWER MICHIGAN

CITY           SKY/WX    TMP DP  RH WIND       PRES   REMARKS
ADRIAN         MOCLDY    27   6  41 N10       30.05R WCI  17
ALMA           PTCLDY    26   1  33 N12G17    30.08R WCI  16
ANN ARBOR      MOCLDY    26   7  44 N12       30.05R WCI  16
BAD AXE        PTCLDY    16   6  63 N12       30.10R WCI   3
CARO           PTCLDY    19   9  64 NE8       30.10R WCI   9
DETROIT CITY   CLOUDY    25   7  46 N10       30.07R WCI  15
DETROIT        MOCLDY    27   8  44 NW8       30.06R WCI  19
FLINT          PTCLDY    26   4  38 N15       30.07R WCI  14
GROSSE ILE     CLOUDY    27   9  46 N12       30.05R WCI  16
HILLSDALE      MOCLDY    27   1  32 N12G17    30.02R WCI  17
HOWELL         MOCLDY    24   3  39 N6        30.04R WCI  17

CITY           SKY/WX    TMP DP  RH WIND       PRES   REMARKS
JACKSON        PTCLDY    26   0  32 N13       30.04R WCI  15
LAMBERTVILLE   CLOUDY    28  12  50 N8        30.07R WCI  20
LANSING        MOCLDY    25   1  35 N13       30.06R WCI  14
LAPEER         MOCLDY    21   9  58 N10G16    30.07R WCI  10
MASON          MOCLDY    26   1  35 N10       30.05R WCI  16
MONROE         CLOUDY    25  12  58 NW13      30.05R WCI  13
MT. CLEMENS    PTCLDY    23   8  51 N15       30.04S WCI  10
PONTIAC        MOCLDY    24   2  38 NW10      30.03R WCI  14
PORT HOPE        N/A     18   9  68 N14G24    30.09R WCI   4
PORT HURON     PTCLDY    21   7  53 N13G20    30.07S WCI   9
TRI CITIES     PTCLDY    23  10  57 E12       30.10R WCI  12
TROY           CLOUDY    25   5  42 N10       30.07S WCI  15
SAGINAW HB     CLEAR     25  10  54 NE12      30.09R WCI  14
$$
MIZ043>046-050>051-056>058-064>065-071>073-077>080-280000-
SOUTHWEST LOWER MICHIGAN

CITY           SKY/WX    TMP DP  RH WIND       PRES   REMARKS
BATTLE CREEK   SUNNY     29   1  30 NW12G20   30.05R WCI  19
BENTON HARBOR  PTSUNNY   22  11  62 NW9G22    30.14R WCI  12
BIG RAPIDS     SUNNY     23   0  37 NE12G17   30.10R WCI  12
COLDWATER      MOSUNNY   29   0  28 N10G16    30.03S WCI  19
FREMONT        FAIR      25  -4  28 N15       30.11R WCI  13
HOLLAND        SUNNY     25  11  55 NW13G24   30.12R WCI  14
GRAND RAPIDS   MOSUNNY   28   4  35 NW13      30.07R WCI  17
IONIA          FAIR      28   0  30 N14       30.06R WCI  17
KALAMAZOO      MOSUNNY   28   8  43 NW13      30.07R WCI  17
LUDINGTON      SUNNY     22   5  49 N16G24    30.18R WCI   8
MARSHALL       MOSUNNY   27  -1  30 CALM      30.03S
MOUNT PLEASANT CLEAR     26   2  37 N6        30.08R WCI  19
MUSKEGON       MOSUNNY   26   5  40 NW14      30.13R WCI  14
SOUTH HAVEN    SUNNY     25  11  55 N14G26    30.13R WCI  13
$$
MIZ016>042-280000-
NORTHERN LOWER MICHIGAN

CITY           SKY/WX    TMP DP  RH WIND       PRES   REMARKS
ALPENA         CLEAR     20   3  48 NW15G21   30.13R WCI   6
BEAVER ISLAND  SUNNY     19   0  43 N7        30.19R WCI   9
BELLAIRE       SUNNY     20   2  45 N7        30.18R WCI  11
CADILLAC       SUNNY     18  -1  43 N12       30.09R WCI   6
CHARLEVOIX     SUNNY     19   5  56 N9        30.21R WCI   7
FRANKFORT      SUNNY     23   0  36 N8G16     30.19R WCI  14
GAYLORD        CLEAR     18   0  45 VRB7      30.08R WCI   9
GRAYLING       FAIR      19   0  42 NW10G16   30.11R WCI   7
HARBOR SPRINGS CLEAR     20  -2  38 NW6       30.16R WCI  12
HOUGHTON LAKE  CLEAR     20   0  41 N12G21    30.08R WCI   8
MANISTEE       SUNNY     21   3  45 N12G17    30.18S WCI   9
OSCODA         CLEAR     21   1  42 N13       30.11R WCI   8
PELLSTON       CLEAR     21   1  41 N9        30.16R WCI  11
ROGERS CITY    CLEAR     19   7  59 NW9G17    30.15R WCI   8
TRAVERSE CITY  MOSUNNY   20   4  50 N8        30.17R WCI  10
$$
MIZ007>008-015-280000-
EASTERN UPPER MICHIGAN

CITY           SKY/WX    TMP DP  RH WIND       PRES   REMARKS
KINROSS        CLEAR     14   3  62 NW15      30.15R WCI  -1
MACKINAC ISLAN CLEAR     20   1  43 N12       30.15S WCI   8
NEWBERRY       SUNNY     13   1  60 N10       30.18S WCI   0
S. S. MARIE    CLEAR     13   3  64 NW15G23   30.15S WCI  -3
$$
MIZ004>006-011>014-085-280000-
CENTRAL UPPER MICHIGAN

CITY           SKY/WX    TMP DP  RH WIND       PRES   REMARKS
MANISTIQUE     SUNNY     18   2  50 N12       30.19S WCI   6
ESCANABA       SUNNY     25   1  36 NE9       30.19S WCI  15
MENOMINEE      SUNNY     25   9  50 E8        30.19S WCI  16
SAWYER-GWINN   SUNNY     16   3  57 NE9       30.17S WCI   4
$$
MIZ001>003-009>011-084-280000-
WESTERN UPPER MICHIGAN

CITY           SKY/WX    TMP DP  RH WIND       PRES   REMARKS
IRON MOUNTAIN  SUNNY     28   1  31 VRB3      30.13S
HOUGHTON       SUNNY     19   4  51 CALM      30.17F
COPPER HARBOR    N/A     16   7  67 CALM      30.22F
IRONWOOD       SUNNY     25   7  46 N3        30.13S
$$

ABBREVIATIONS USED IN REMARKS
   TC - TEMPERATURE IN CELSIUS
  WCI - WIND CHILL INDEX
   HX - HEAT INDEX
  VSB - VISIBILITY




USA.gov is the U.S. government's official web portal to all federal, state and local government web resources and services.